| time (UTC) | temp F | wind direction | speed MPH | gust MPH | rain 1hr in | rain 24hr in | rain mn in | humidity % | barometer mb |
| 20260904150100 | 52 | 14 | 0.0 | 0.0 | 0.00 | 0.07 | 0.00 | 97 | 1008.6 |
| 20260904144557 | 52 | 9 | 0.0 | 0.0 | 0.00 | 0.07 | 0.00 | 97 | 1008.5 |
| 20260904143055 | 52 | 64 | 0.0 | 0.0 | 0.00 | 0.07 | 0.00 | 97 | 1008.2 |
| 20260904141556 | 52 | 62 | 0.0 | 0.0 | 0.00 | 0.07 | 0.00 | 97 | 1008.2 |
| 20260904140053 | 52 | 74 | 0.0 | 0.0 | 0.00 | 0.07 | 0.00 | 97 | 1008.1 |
| 20260904134550 | 52 | 32 | 0.0 | 0.0 | 0.00 | 0.12 | 0.00 | 97 | 1008.0 |
| 20260904133057 | 52 | 32 | 0.0 | 0.0 | 0.00 | 0.12 | 0.00 | 97 | 1007.8 |
| 20260904131546 | 52 | 32 | 0.0 | 0.0 | 0.00 | 0.12 | 0.00 | 97 | 1007.6 |
| 20260904130045 | 52 | 36 | 0.0 | 0.0 | 0.00 | 0.12 | 0.00 | 97 | 1007.5 |
| 20260904124548 | 53 | 15 | 0.0 | 0.0 | 0.00 | 0.19 | 0.00 | 97 | 1007.4 |
| 20260904123104 | 53 | 15 | 0.0 | 0.0 | 0.00 | 0.19 | 0.00 | 96 | 1007.2 |
| 20260904121539 | 53 | 71 | 0.0 | 0.0 | 0.00 | 0.19 | 0.00 | 97 | 1007.1 |
| 20260904120040 | 53 | 24 | 0.0 | 0.0 | 0.00 | 0.19 | 0.00 | 97 | 1007.1 |
| 20260904114537 | 53 | 25 | 0.0 | 0.0 | 0.00 | 0.25 | 0.00 | 96 | 1007.0 |
| 20260904113047 | 54 | 27 | 0.0 | 0.0 | 0.00 | 0.25 | 0.00 | 96 | 1007.1 |
| 20260904111532 | 54 | 65 | 0.0 | 0.0 | 0.00 | 0.25 | 0.00 | 96 | 1007.1 |
| 20260904110038 | 54 | 30 | 0.0 | 0.0 | 0.00 | 0.25 | 0.00 | 96 | 1007.0 |
| 20260904104529 | 54 | 17 | 0.0 | 0.0 | 0.00 | 0.33 | 0.00 | 96 | 1007.0 |
| 20260904103028 | 55 | 26 | 0.0 | 0.0 | 0.00 | 0.33 | 0.00 | 96 | 1007.0 |
| 20260904101526 | 55 | 74 | 0.0 | 0.0 | 0.00 | 0.33 | 0.00 | 96 | 1007.0 |
| 20260904100025 | 56 | 46 | 0.0 | 0.0 | 0.00 | 0.33 | 0.00 | 96 | 1007.0 |
| 20260904094522 | 56 | 52 | 0.0 | 0.0 | 0.00 | 0.38 | 0.00 | 96 | 1006.9 |
| 20260904093022 | 56 | 355 | 0.0 | 0.0 | 0.00 | 0.38 | 0.00 | 96 | 1006.9 |
| 20260904091523 | 56 | 355 | 0.0 | 0.0 | 0.00 | 0.38 | 0.00 | 96 | 1006.9 |
| 20260904090022 | 56 | 313 | 0.0 | 0.0 | 0.00 | 0.38 | 0.00 | 96 | 1006.9 |
| 20260904084522 | 56 | 49 | 0.0 | 0.0 | 0.00 | 0.43 | 0.00 | 96 | 1007.0 |
| 20260904083018 | 56 | 40 | 0.0 | 0.0 | 0.00 | 0.43 | 0.00 | 96 | 1007.1 |
| 20260904081517 | 56 | 57 | 0.0 | 0.0 | 0.00 | 0.43 | 0.00 | 96 | 1007.1 |
| 20260904080018 | 56 | 10 | 0.0 | 0.0 | 0.00 | 0.43 | 0.00 | 96 | 1007.1 |
| 20260904074516 | 56 | 10 | 0.0 | 0.0 | 0.00 | 0.48 | 0.00 | 96 | 1007.0 |
| 20260904073014 | 56 | 10 | 0.0 | 0.0 | 0.01 | 0.48 | 0.00 | 96 | 1007.0 |
| 20260904071513 | 56 | 10 | 0.0 | 0.0 | 0.01 | 0.48 | 0.00 | 96 | 1007.0 |
| 20260904070030 | 56 | 10 | 0.0 | 0.0 | 0.01 | 0.48 | 0.00 | 96 | 1006.9 |
| 20260904064508 | 56 | 10 | 0.0 | 0.0 | 0.01 | 0.51 | 0.48 | 96 | 1006.9 |
| 20260904063013 | 56 | 10 | 0.0 | 0.0 | 0.00 | 0.50 | 0.47 | 96 | 1006.9 |
| 20260904061506 | 57 | 10 | 0.0 | 0.0 | 0.00 | 0.50 | 0.47 | 96 | 1006.8 |
| 20260904060005 | 57 | 10 | 0.0 | 0.0 | 0.00 | 0.50 | 0.47 | 96 | 1006.8 |
| 20260904054503 | 57 | 10 | 0.0 | 0.0 | 0.00 | 0.51 | 0.47 | 96 | 1006.7 |
| 20260904053003 | 58 | 10 | 0.0 | 0.0 | 0.00 | 0.51 | 0.47 | 96 | 1006.9 |
| 20260904051604 | 58 | 10 | 0.0 | 0.0 | 0.00 | 0.51 | 0.47 | 96 | 1006.9 |
| 20260904050005 | 58 | 10 | 0.0 | 0.0 | 0.00 | 0.51 | 0.47 | 96 | 1007.0 |
| 20260904044500 | 58 | 10 | 0.0 | 0.0 | 0.01 | 0.51 | 0.47 | 95 | 1007.1 |
| 20260904043100 | 58 | 10 | 0.0 | 0.0 | 0.01 | 0.51 | 0.47 | 95 | 1007.2 |
| 20260904041559 | 58 | 321 | 0.0 | 0.0 | 0.01 | 0.51 | 0.47 | 95 | 1007.1 |
| 20260904040057 | 58 | 341 | 0.0 | 0.0 | 0.01 | 0.51 | 0.47 | 96 | 1006.9 |
| 20260904034600 | 59 | 290 | 0.0 | 0.0 | 0.00 | 0.50 | 0.46 | 96 | 1006.8 |
| 20260904033056 | 59 | 248 | 0.0 | 0.0 | 0.00 | 0.50 | 0.46 | 95 | 1006.8 |
| 20260904031555 | 59 | 247 | 0.0 | 0.0 | 0.00 | 0.50 | 0.46 | 95 | 1006.6 |
| 20260904030058 | 59 | 247 | 0.0 | 0.0 | 0.01 | 0.50 | 0.46 | 95 | 1006.5 |
| 20260904024552 | 59 | 213 | 0.0 | 0.0 | 0.01 | 0.50 | 0.46 | 95 | 1006.5 |
| 20260904023058 | 59 | 17 | 0.0 | 0.0 | 0.01 | 0.50 | 0.46 | 95 | 1006.6 |
| 20260904021554 | 60 | 17 | 0.0 | 0.0 | 0.01 | 0.50 | 0.46 | 95 | 1006.6 |
| 20260904020050 | 60 | 17 | 0.0 | 0.0 | 0.00 | 0.49 | 0.45 | 94 | 1006.6 |
| 20260904014549 | 60 | 17 | 0.0 | 0.0 | 0.00 | 0.49 | 0.45 | 95 | 1006.8 |
| 20260904013049 | 61 | 55 | 0.0 | 0.0 | 0.00 | 0.49 | 0.45 | 95 | 1006.9 |
| 20260904011606 | 61 | 55 | 0.0 | 0.0 | 0.00 | 0.49 | 0.45 | 95 | 1006.9 |
| 20260904010054 | 61 | 5 | 0.0 | 0.0 | 0.00 | 0.49 | 0.45 | 95 | 1006.9 |
| 20260904004546 | 60 | 5 | 0.0 | 0.0 | 0.00 | 0.49 | 0.45 | 94 | 1007.0 |
| 20260904003046 | 61 | 48 | 0.0 | 0.0 | 0.00 | 0.49 | 0.45 | 94 | 1006.9 |
| 20260904001547 | 61 | 340 | 0.0 | 0.0 | 0.00 | 0.49 | 0.45 | 94 | 1007.0 |
| 20260904000052 | 61 | 204 | 0.0 | 0.0 | 0.00 | 0.49 | 0.45 | 94 | 1006.9 |
| 20260903234547 | 62 | 261 | 0.0 | 0.0 | 0.00 | 0.49 | 0.45 | 94 | 1007.0 |
| 20260903233043 | 61 | 261 | 0.0 | 0.0 | 0.00 | 0.49 | 0.45 | 95 | 1007.0 |
| 20260903231544 | 62 | 261 | 0.0 | 0.0 | 0.00 | 0.49 | 0.45 | 95 | 1007.2 |
| 20260903230046 | 61 | 219 | 0.0 | 0.0 | 0.00 | 0.49 | 0.45 | 96 | 1007.2 |
| 20260903224543 | 61 | 252 | 0.0 | 0.0 | 0.00 | 0.49 | 0.45 | 96 | 1007.2 |
| 20260903223038 | 60 | 229 | 0.0 | 0.0 | 0.00 | 0.49 | 0.45 | 96 | 1007.5 |
| 20260903221538 | 60 | 272 | 0.0 | 0.0 | 0.00 | 0.49 | 0.45 | 96 | 1007.7 |
| 20260903220040 | 61 | 249 | 0.0 | 0.0 | 0.00 | 0.49 | 0.45 | 97 | 1007.8 |
| 20260903214542 | 61 | 249 | 0.0 | 0.0 | 0.00 | 0.49 | 0.45 | 97 | 1007.8 |
| 20260903213046 | 61 | 249 | 0.0 | 0.0 | 0.00 | 0.49 | 0.45 | 96 | 1007.9 |
| 20260903211535 | 61 | 242 | 0.0 | 0.0 | 0.00 | 0.49 | 0.45 | 97 | 1007.7 |
| 20260903210033 | 61 | 242 | 0.0 | 0.0 | 0.00 | 0.49 | 0.45 | 97 | 1007.8 |
| 20260903204531 | 61 | 242 | 0.0 | 0.0 | 0.00 | 0.49 | 0.45 | 97 | 1007.8 |
| 20260903203043 | 61 | 226 | 0.0 | 0.0 | 0.00 | 0.49 | 0.45 | 96 | 1007.7 |
| 20260903201535 | 61 | 184 | 0.0 | 2.0 | 0.00 | 0.49 | 0.45 | 97 | 1007.7 |
| 20260903200026 | 62 | 233 | 0.0 | 0.0 | 0.00 | 0.49 | 0.45 | 97 | 1007.7 |
| 20260903194522 | 61 | 207 | 0.0 | 0.0 | 0.00 | 0.49 | 0.45 | 97 | 1007.8 |
| 20260903193026 | 61 | 240 | 0.0 | 0.0 | 0.00 | 0.49 | 0.45 | 97 | 1008.1 |
| 20260903191515 | 61 | 221 | 0.0 | 0.0 | 0.00 | 0.49 | 0.45 | 97 | 1008.1 |
| 20260903190013 | 61 | 202 | 0.0 | 0.0 | 0.00 | 0.49 | 0.45 | 97 | 1008.2 |
| 20260903184510 | 61 | 198 | 0.0 | 0.0 | 0.01 | 0.49 | 0.45 | 97 | 1008.3 |
| 20260903183009 | 61 | 194 | 0.0 | 0.0 | 0.02 | 0.49 | 0.45 | 97 | 1008.3 |
| 20260903181512 | 61 | 259 | 0.0 | 0.0 | 0.03 | 0.49 | 0.45 | 97 | 1008.4 |
| 20260903180015 | 59 | 221 | 0.0 | 0.0 | 0.03 | 0.49 | 0.45 | 96 | 1008.5 |
| 20260903174504 | 60 | 226 | 0.0 | 0.0 | 0.02 | 0.48 | 0.44 | 97 | 1008.5 |
| 20260903173004 | 60 | 269 | 0.0 | 0.0 | 0.01 | 0.47 | 0.43 | 97 | 1008.4 |
| 20260903171506 | 60 | 293 | 0.0 | 0.0 | 0.00 | 0.46 | 0.42 | 97 | 1008.3 |
| 20260903170005 | 60 | 261 | 0.0 | 0.0 | 0.00 | 0.46 | 0.42 | 97 | 1008.2 |
| 20260903164504 | 60 | 258 | 0.0 | 0.0 | 0.00 | 0.46 | 0.42 | 97 | 1008.1 |
| 20260903163002 | 60 | 192 | 0.0 | 0.0 | 0.01 | 0.46 | 0.42 | 97 | 1008.1 |
| 20260903161600 | 60 | 265 | 0.0 | 0.0 | 0.01 | 0.46 | 0.42 | 97 | 1008.0 |
| 20260903160100 | 60 | 265 | 0.0 | 0.0 | 0.01 | 0.46 | 0.42 | 96 | 1008.0 |
| 20260903154601 | 60 | 225 | 0.0 | 0.0 | 0.01 | 0.46 | 0.42 | 96 | 1008.0 |
| 20260903153059 | 60 | 225 | 0.0 | 0.0 | 0.00 | 0.45 | 0.41 | 96 | 1008.0 |
| 20260903151559 | 60 | 225 | 0.0 | 0.0 | 0.00 | 0.45 | 0.41 | 96 | 1007.8 |